Location: Newark
(3.0500°N, 36.0167°E)
Time: 20:03:23
(UTC+00:00)

Transit 2A Rocket - Pass Details

Date: 27 August 2019
Orbit: 593 x 910 km, 66.7° (Epoch: 15 October)

Event Time Altitude Azimuth Distance (km) Brightness Sun altitude
Rises 01:42:39 0° 350° (N) 2,818 8.0 -27.6°
Reaches altitude 10° 01:44:56 10° 357° (N) 1,914 7.2 -27.1°
Maximum altitude 01:49:01 45° 70° (ENE) 811 5.5 -26.1°
Drops below altitude 10° 01:53:13 10° 143° (SE) 1,967 7.4 -25.0°
Sets 01:55:36 0° 149° (SSE) 2,906 8.2 -24.5°
